Vacaville, CA

9:30 AM PDT on September 27, 2016 (GMT -0700)
Nut Tree

Weather History for KVCB - March, 2012

Change the Weather History Date:

Saturday, March 31, 2012

  Actual Average Record
Temperature  
Mean Temperature 52 °F -  
Max Temperature 57 °F 69 °F 89 °F (1966)
Min Temperature 46 °F 44 °F 32 °F (1974)
Degree Days  
Heating Degree Days 14    
Growing Degree Days 2 (Base 50)    
Moisture  
Dew Point 46 °F    
Average Humidity 79    
Maximum Humidity 90    
Minimum Humidity 51    
Precipitation  
Precipitation 0.38 in - - ()
Sea Level Pressure  
Sea Level Pressure 29.83 in    
Wind  
Wind Speed 12 mph (SSW)    
Max Wind Speed 22 mph    
Max Gust Speed 36 mph    
Visibility 8 miles    
Events Rain    
Averages and records for this station are not official NWS values.
T = Trace of Precipitation, MM = Missing Value Source: NWS Daily Summary

Daily Weather History Graph

Daily Weather History Graph

Search for Another Location

Airport or City:

Trip Planner

Search our weather history database for the weather conditions in past years. The results will help you decide how hot, cold, wet, or windy it might be!

Date:

Astronomy

Mar. 31, 2012 Rise Set
Actual Time 6:53 AM PDT 7:30 PM PDT
Civil Twilight 6:26 AM PDT 7:57 PM PDT
Nautical Twilight 5:55 AM PDT 8:28 PM PDT
Astronomical Twilight 5:23 AM PDT 9:01 PM PDT
Moon 1:09 PM PDT (3/31) 2:48 AM PDT (3/31)
Length of Visible Light 13h 30m
Length of Day
12h 37m
First Quarter, 60% of the Moon is Illuminated
Mar 31
First Quarter
Apr 6
Full
Apr 13
Last Quarter
Apr 21
New
Apr 29
First Quarter

Hourly Weather History & Observations

Time (PDT) Temp. Dew Point Humidity Pressure Visibility Wind Dir Wind Speed Gust Speed Precip Events Conditions
12:53 AM 57.0 °F 52.0 °F 83% 29.90 in 10.0 mi SSW 5.8 mph - N/A   Overcast
1:53 AM 57.0 °F 51.1 °F 81% 29.88 in 10.0 mi South 5.8 mph - N/A   Overcast
2:53 AM 57.0 °F 50.0 °F 77% 29.84 in 10.0 mi South 8.1 mph - N/A   Overcast
3:53 AM 57.0 °F 51.1 °F 81% 29.83 in 4.0 mi SSW 13.8 mph 24.2 mph 0.01 in Rain Rain
4:01 AM 55.4 °F 51.8 °F 88% 29.82 in 4.0 mi South 11.5 mph 24.2 mph 0.01 in Rain Light Rain
4:09 AM 55.4 °F 51.8 °F 88% 29.82 in 10.0 mi South 9.2 mph 19.6 mph 0.01 in   Overcast
4:53 AM 55.9 °F 51.1 °F 84% 29.81 in 10.0 mi South 9.2 mph - 0.01 in   Overcast
5:53 AM 57.0 °F 50.0 °F 77% 29.77 in 10.0 mi South 11.5 mph 18.4 mph N/A   Mostly Cloudy
6:53 AM 57.0 °F 48.9 °F 74% 29.73 in 10.0 mi SSE 13.8 mph 24.2 mph N/A   Overcast
7:53 AM 57.9 °F 48.0 °F 70% 29.71 in 10.0 mi South 16.1 mph 24.2 mph N/A   Overcast
8:53 AM 57.0 °F 48.9 °F 74% 29.72 in 10.0 mi South 16.1 mph 29.9 mph 0.01 in   Overcast
9:06 AM 53.6 °F 50.0 °F 88% 29.75 in 1.8 mi SW 16.1 mph 32.2 mph 0.06 in Rain Heavy Rain
9:23 AM 50.0 °F 46.4 °F 87% 29.76 in 2.5 mi WSW 17.3 mph 28.8 mph 0.13 in Rain Rain
9:39 AM 50.0 °F 46.4 °F 87% 29.77 in 5.0 mi SW 18.4 mph 31.1 mph 0.17 in Rain Light Rain
9:53 AM 50.0 °F 46.0 °F 86% 29.78 in 7.0 mi WSW 18.4 mph 27.6 mph 0.18 in Rain Light Rain
10:53 AM 48.9 °F 46.0 °F 90% 29.83 in 6.0 mi WSW 12.7 mph - 0.05 in Rain Light Rain
11:53 AM 48.0 °F 44.1 °F 86% 29.83 in 6.0 mi SSW 8.1 mph 18.4 mph 0.05 in Rain Light Rain
12:53 PM 50.0 °F 46.0 °F 86% 29.84 in 10.0 mi SSW 11.5 mph 19.6 mph 0.00 in   Overcast
1:13 PM 51.8 °F 46.4 °F 82% 29.83 in 10.0 mi South 13.8 mph 20.7 mph N/A   Mostly Cloudy
1:25 PM 51.8 °F 46.4 °F 82% 29.83 in 10.0 mi South 15.0 mph 21.9 mph N/A   Mostly Cloudy
1:41 PM 53.6 °F 46.4 °F 77% 29.83 in 10.0 mi SSW 11.5 mph 19.6 mph N/A   Mostly Cloudy
1:53 PM 55.9 °F 45.0 °F 67% 29.83 in 10.0 mi SSW 16.1 mph 26.5 mph N/A   Partly Cloudy
2:53 PM 55.9 °F 44.1 °F 64% 29.81 in 10.0 mi SW 19.6 mph 31.1 mph N/A   Scattered Clouds
3:53 PM 55.9 °F 42.1 °F 60% 29.81 in 10.0 mi SW 21.9 mph 32.2 mph N/A   Mostly Cloudy
4:53 PM 57.0 °F 39.0 °F 51% 29.83 in 10.0 mi SSW 20.7 mph 35.7 mph N/A   Mostly Cloudy
5:53 PM 55.0 °F 41.0 °F 59% 29.82 in 10.0 mi SSW 19.6 mph 35.7 mph N/A   Overcast
6:53 PM 53.1 °F 39.9 °F 61% 29.84 in 10.0 mi SW 17.3 mph 28.8 mph N/A   Scattered Clouds
7:53 PM 48.0 °F 43.0 °F 83% 29.90 in 4.0 mi SW 20.7 mph 35.7 mph 0.03 in Rain Rain
8:53 PM 46.9 °F 44.1 °F 90% 29.93 in 10.0 mi SW 13.8 mph - 0.04 in   Mostly Cloudy
10:37 PM 48.2 °F 42.8 °F 82% 29.97 in 10.0 mi SW 10.4 mph - N/A   Mostly Cloudy
10:53 PM 46.9 °F 43.0 °F 86% 29.98 in 10.0 mi WSW 11.5 mph - N/A   Scattered Clouds
11:53 PM 46.9 °F 42.1 °F 83% 29.99 in 10.0 mi WSW 10.4 mph - N/A   Mostly Cloudy